Flag for U.S.A. Weather past 2 weeks in Thousand Oaks, California, U.S.A.

Now
66 °F

Sunny.


Feels Like: 66 °F
Forecast: 63 / 79 °F
Wind: 7 mph from West

Location: Camarillo Airport

Current Time: Jul 2, 2015 at 8:44:45 PM

Latest Report: Jul 2, 2015 at 7:55 PM


Visibility: 10 mi

Pressure: 29.95 "Hg

Humidity: 78%

Dew point: 59 °F

Location of Thousand OaksLocation

Historic Weather in Thousand Oaks — Graph

°F

Thousand Oaks temperature yesterday

Maximum temperature yesterday: 79 °F (at 12:55 PM)
Minimum temperature yesterday: 64 °F (at 1:55 AM)
Average temperature yesterday: 69 °F

Past Weeks' High & Low Weather Summary

 TemperatureHumidityPressure
High81 °F (Jun 30, 12:55 PM)90% (Jun 18, 1:55 AM)30.06 "Hg (Jun 18, 1:55 AM)
Low55 °F (Jun 19, 4:55 AM)41% (Jun 19, 1:55 PM)29.80 "Hg (Jun 20, 2:55 AM)
Average67 °F71%29.93 "Hg
* Reported Jun 17 6:55 PM — Jul 2 6:55 PM, Thousand Oaks, Weather by CustomWeather, © 2015

Note: Actual official high and low records may vary slightly from our data, if they occured in-between our weather recording intervals... More about our weather records

Advertising

Thousand Oaks weather history for previous 24 hours

 ConditionsComfort  
Time TempWeatherWind HumidityBarometerVisibility
6:55 PM
Thu, Jul 2
70 °FSunny.12 mph68%29.94 "Hg10 mi
5:55 PM73 °FSunny.10 mph57%29.94 "Hg10 mi
4:55 PM75 °FSunny.12 mph58%29.96 "Hg10 mi
3:55 PM78 °FSunny.10 mph50%29.97 "Hg10 mi
2:55 PM77 °FSunny.12 mph52%30.00 "Hg10 mi
1:55 PM80 °FSunny.12 mph47%29.99 "Hg10 mi
12:55 PM79 °FSunny.10 mph48%30.00 "Hg10 mi
11:55 AM78 °FSunny.9 mph52%30.01 "Hg10 mi
10:55 AM73 °FSunny.3 mph66%30.01 "Hg10 mi
9:55 AM69 °FSunny.5 mph76%30.01 "Hg10 mi
8:55 AM67 °FPassing clouds.5 mph81%30.02 "Hg10 mi
7:55 AM66 °FSunny.5 mph81%30.01 "Hg10 mi
6:55 AM66 °FSunny.5 mph81%30.00 "Hg10 mi
5:55 AM66 °FClear.5 mph81%29.99 "Hg10 mi
4:55 AM66 °FClear.No wind81%29.97 "Hg10 mi
3:55 AM66 °FClear.3 mph81%29.96 "Hg10 mi
2:55 AM66 °FClear.No wind81%29.97 "Hg10 mi
1:55 AM66 °FClear.No wind81%29.97 "Hg10 mi
12:55 AM65 °FClear.3 mph81%29.96 "Hg10 mi
11:55 PM
Wed, Jul 1
65 °FClear.3 mph81%29.97 "Hg10 mi
10:55 PM65 °FClear.No wind81%29.98 "Hg10 mi
9:55 PM66 °FClear.6 mph78%29.96 "Hg10 mi
8:55 PM68 °FSunny.3 mph73%29.95 "Hg10 mi
Weather by CustomWeather, © 2015

See weather overviewHow to use our weather pages